TimeCDT,TemperatureF,Dew PointF,Humidity,Sea Level PressureIn,VisibilityMPH,Wind Direction,Wind SpeedMPH,Gust SpeedMPH,PrecipitationIn,Events,Conditions,WindDirDegrees,DateUTC
12:52 AM,43.0,28.9,58,29.95,10.0,NW,13.8,-,N/A,,Clear,310,2012-10-30 05:52:00
1:52 AM,43.0,28.0,56,29.93,10.0,NW,16.1,-,N/A,,Clear,310,2012-10-30 06:52:00
2:52 AM,42.1,28.0,58,29.91,10.0,NW,13.8,21.9,N/A,,Clear,310,2012-10-30 07:52:00
3:52 AM,42.1,27.0,55,29.90,10.0,NW,12.7,19.6,N/A,,Clear,310,2012-10-30 08:52:00
4:52 AM,41.0,27.0,57,29.90,10.0,WNW,13.8,-,N/A,,Clear,300,2012-10-30 09:52:00
5:52 AM,41.0,26.1,55,29.88,10.0,NW,13.8,-,N/A,,Clear,310,2012-10-30 10:52:00
6:52 AM,39.9,26.1,58,29.88,10.0,WNW,12.7,-,N/A,,Clear,300,2012-10-30 11:52:00
7:52 AM,41.0,26.1,55,29.87,10.0,WNW,13.8,-,N/A,,Clear,300,2012-10-30 12:52:00
8:52 AM,43.0,26.1,51,29.87,10.0,WNW,15.0,-,N/A,,Clear,300,2012-10-30 13:52:00
9:52 AM,46.0,25.0,44,29.86,10.0,NW,21.9,29.9,N/A,,Clear,320,2012-10-30 14:52:00
10:52 AM,48.0,24.1,39,29.85,10.0,NW,17.3,31.1,N/A,,Clear,310,2012-10-30 15:52:00
11:52 AM,51.1,23.0,33,29.84,10.0,NW,18.4,32.2,N/A,,Clear,320,2012-10-30 16:52:00
12:52 PM,52.0,21.0,30,29.83,10.0,NW,20.7,28.8,N/A,,Unknown,310,2012-10-30 17:52:00
1:52 PM,55.0,21.9,28,29.80,10.0,NW,16.1,27.6,N/A,,Clear,310,2012-10-30 18:52:00
2:52 PM,55.9,19.9,25,29.79,10.0,NW,23.0,28.8,N/A,,Clear,310,2012-10-30 19:52:00
3:52 PM,55.9,19.0,24,29.79,10.0,NW,15.0,27.6,N/A,,Clear,310,2012-10-30 20:52:00
4:52 PM,54.0,18.0,24,29.80,10.0,NW,18.4,26.5,N/A,,Clear,310,2012-10-30 21:52:00
7:52 PM,46.9,21.9,37,29.86,10.0,West,5.8,-,N/A,,Clear,260,2012-10-31 00:52:00
8:52 PM,45.0,24.1,44,29.86,10.0,West,5.8,-,N/A,,Clear,270,2012-10-31 01:52:00
9:52 PM,42.1,25.0,51,29.88,10.0,West,6.9,-,N/A,,Clear,280,2012-10-31 02:52:00
10:52 PM,42.1,26.1,53,29.87,10.0,West,6.9,-,N/A,,Clear,280,2012-10-31 03:52:00
11:52 PM,39.9,27.0,60,29.86,10.0,West,6.9,-,N/A,,Clear,270,2012-10-31 04:52:00